North Myrtle Beach, SC

8:57 AM EST on November 12, 2019 (GMT -0500)
Grand Strand

Weather History for KCRE - August, 2019

Change the Weather History Date:

Tuesday, August 6, 2019

  Actual Average Record
Temperature  
Mean Temperature 79 °F 79 °F  
Max Temperature 85 °F 87 °F 99 °F (1956)
Min Temperature 72 °F 72 °F 60 °F (1951)
Degree Days  
Heating Degree Days 0 0  
Month to date heating degree days 0 0  
Since 1 June heating degree days 0 0  
Since 1 July heating degree days 0 0  
Cooling Degree Days 14 14  
Month to date cooling degree days 86 89  
Year to date cooling degree days 1378 1134  
Since 1 June cooling degree days 985 922  
Growing Degree Days 28 (Base 50)    
Moisture  
Dew Point 73 °F    
Average Humidity 85    
Maximum Humidity 100    
Minimum Humidity 70    
Precipitation  
Precipitation 0.00 in 0.21 in 1.83 in (1943)
Month to date precipitation 0.48 1.27  
Year to date precipitation 23.49 29.21  
Sea Level Pressure  
Sea Level Pressure 29.92 in    
Wind  
Wind Speed 8 mph (SSW)    
Max Wind Speed 17 mph    
Max Gust Speed 22 mph    
Visibility 10 miles    
Events      
T = Trace of Precipitation, MM = Missing Value Source: NWS Daily Summary

Daily Weather History Graph

Daily Weather History Graph

Search for Another Location

Airport or City:

Astronomy

Aug. 06, 2019 Rise Set
Actual Time 6:30 AM EDT 8:10 PM EDT
Civil Twilight 6:03 AM EDT 8:37 PM EDT
Nautical Twilight 5:30 AM EDT 9:10 PM EDT
Astronomical Twilight 4:56 AM EDT 9:44 PM EDT
Moon 12:35 PM EDT (8/6) No Moon Set
Length of Visible Light 14h 34m
Length of Day
13h 40m
Waxing Crescent, 38% of the Moon is Illuminated
Aug 6
Waxing Crescent
Aug 7
First Quarter
Aug 15
Full
Aug 23
Last Quarter
Aug 30
New

Hourly Weather History & Observations

Time (EDT) Temp. Heat Index Dew Point Humidity Pressure Visibility Wind Dir Wind Speed Gust Speed Precip Events Conditions
12:53 AM 73.0 °F - 72.0 °F 96% 29.92 in 10.0 mi Calm Calm - N/A   Clear
1:53 AM 73.9 °F - 72.0 °F 93% 29.91 in 10.0 mi Variable 5.8 mph - N/A   Clear
2:53 AM 73.0 °F - 72.0 °F 96% 29.92 in 10.0 mi West 3.5 mph - N/A   Partly Cloudy
3:53 AM 72.0 °F - 72.0 °F 100% 29.91 in 10.0 mi Calm Calm - N/A   Clear
4:53 AM 72.0 °F - 71.1 °F 97% 29.91 in 10.0 mi West 4.6 mph - N/A   Clear
5:53 AM 73.0 °F - 71.1 °F 93% 29.92 in 10.0 mi West 5.8 mph - N/A   Clear
6:53 AM 72.0 °F - 71.1 °F 97% 29.93 in 10.0 mi Calm Calm - N/A   Clear
7:53 AM 75.0 °F - 73.0 °F 94% 29.94 in 10.0 mi Calm Calm - N/A   Clear
8:53 AM 78.1 °F - 73.0 °F 84% 29.95 in 10.0 mi NW 4.6 mph - N/A   Clear
9:53 AM 81.0 °F 86.2 °F 73.9 °F 79% 29.95 in 10.0 mi Calm Calm - N/A   Partly Cloudy
10:53 AM 81.0 °F 86.2 °F 73.9 °F 79% 29.96 in 10.0 mi SSE 8.1 mph - N/A   Scattered Clouds
11:53 AM 82.0 °F 87.9 °F 73.9 °F 76% 29.95 in 10.0 mi South 6.9 mph - N/A   Scattered Clouds
12:53 PM 82.0 °F 88.6 °F 75.0 °F 79% 29.94 in 10.0 mi Variable 4.6 mph - N/A   Scattered Clouds
1:53 PM 84.0 °F 91.2 °F 73.9 °F 72% 29.92 in 10.0 mi SSE 8.1 mph - N/A   Clear
2:53 PM 84.0 °F 91.2 °F 73.9 °F 72% 29.92 in 10.0 mi South 11.5 mph - N/A   Clear
3:53 PM 84.0 °F 91.2 °F 73.9 °F 72% 29.90 in 10.0 mi South 12.7 mph - N/A   Clear
4:53 PM 84.0 °F 91.2 °F 73.9 °F 72% 29.89 in 10.0 mi SSW 10.4 mph - N/A   Mostly Cloudy
5:53 PM 82.9 °F 89.4 °F 73.9 °F 74% 29.90 in 10.0 mi SW 11.5 mph - N/A   Scattered Clouds
6:53 PM 82.9 °F 90.2 °F 75.0 °F 77% 29.89 in 10.0 mi SSW 11.5 mph - N/A   Clear
7:53 PM 82.0 °F 88.6 °F 75.0 °F 79% 29.89 in 10.0 mi SSW 12.7 mph - N/A   Clear
8:53 PM 82.0 °F 88.6 °F 75.0 °F 79% 29.91 in 10.0 mi SSW 15.0 mph - N/A   Clear
9:53 PM 81.0 °F 86.7 °F 75.0 °F 82% 29.92 in 10.0 mi SSW 12.7 mph - N/A   Clear
10:53 PM 82.0 °F 88.6 °F 75.0 °F 79% 29.91 in 10.0 mi SSW 12.7 mph - N/A   Clear
11:53 PM 82.0 °F 88.6 °F 75.0 °F 79% 29.92 in 10.0 mi SSW 12.7 mph - N/A   Partly Cloudy